STARLINK-34405, 64704

Orbit data source: Space-Track

STARLINK-34405, 64704 is a payload satellite owned by SpaceX/Seattle (US) in LEO that was launched on Sat, 28 Jun 2025 UTC via an FALCON 9 launch vehicle from the Air Force Western Test Range (AFWTR). Payload-class satellites include a variety of spacecraft equipped with specific instruments for various scientific and technological missions. These include communications satellites like Starlink; space stations such as the ISS; scientific satellites like the Hubble; Earth observation satellites from companies like Planet Labs, Umbra, and HawkEye 360; GPS; miniature CubeSats for education and research; and military/defense satellites.

Not visible in the next 10 days
Identifier
64704, 2025-142J
Orbit
LEO
Last TLE update
9 hours ago
Origin
Manufacturer
SpaceX/Seattle
Mission
Operational spacecraft
Bus & Motor
STARLINK V2MO, Unknown motor
Mass
575 kg wet, ~530 kg dry
Launch date (UTC)
2025-06-28 (1 week ago)
Launch vehicle
FALCON 9
Launch site
Air Force Western Test Range (AFWTR)
Object type
Payload
Rocket body
Debris
Shape & HBR
Unknown
Radar Cross Section
RCS unknown

Expand to show TLE details & history

TLE from 9 hours ago
0 STARLINK-34405
1 64704U 25142J   25186.58335648 -.01121530  00000-0 -45809-2 0  9992
2 64704  69.9954 231.3330 0003835 278.7449  50.9775 15.88382340  2131
Epoch: 2025-07-05T14:00Z
TLE epoch observation values (Epoch: 2025-07-05T14:00:01.999Z)
Latitude
-28.49956°
Longitude
86.17009°
Altitude
315.373 km
Speed
7.719 km/s
True Right ascension
14h 39m 59s
True Declination
-28° 20' 46"
Sunlit
Object was in full shadow at epoch
Visualization orbit readout
Latitude
-55.95641°
Longitude
-51.14133°
Altitude
328.551 km
Speed
7.711 km/s
Apparent Right ascension
01h 27m 01s
Apparent Declination
-60° 23' 18"
Sunlit
Object is in daylight
Visualization observer readout
Local Sidereal Time
10:38:20
Azimuth
217.531° SW
Elevation
-57.007°
Doppler factor
1
Orbital elements
Apogee altitude
307.248 km
Perigee altitude
302.122 km
Semi-major axis
6,682.822 km
Eccentricity
0.00038
Inclination
69.9954°
RAAN
231.333°
Arg. of periapsis
278.7449°
True anomaly
Unknown
Mean anomaly
50.9775°
Eccentric anomaly
Unknown
Mean motion
3.97286 °/min
Orbital period
90.61 mins
BSTAR
-0.0045809
Loading maneuver chart data...
Loading SW <> Apogee altitude chart data...
Loading historical data...
Loading historical data...
Loading historical data...
Loading historical data...
Loading historical data...
Loading historical data...
Loading historical data...

STARLINK-34405 Visibility

Observer location: undefined°, undefined°

STARLINK-34405 is likely not visible in the next few days
Span
Click to sort rows by Start time (UTC) header in descending order
Start Az.
Max El. time (UTC)
Max El. Az.
Max El.
End time (UTC)
End Az.
|